sat.trackr.live / text

‹ back to catalog

STARLINK-30322

NORAD 57670 · 2023-124H

PAYLOAD ACTIVE UNKNOWN

§ Identity

Operator
Country
US
Launch date
2023-08-22
Launch site
AFWTR
Launch vehicle
Mass (kg)
RCS (m²)

Purposes: comms

External: N2YO · Heavens-Above · Gunter

§ Orbital elements

Epoch: 2026-09-20T14:42:34.315488Z

Period
93.85 min
Inclination
53.1613°
Eccentricity
0.0000859
Mean motion
15.34410231 rev/d
Perigee alt
462.1 km
Apogee alt
463.3 km
Semi-major
6,840.8 km
B*
9.2385e-5
RAAN
18.9474°
Arg perigee
87.5708°
Mean anomaly
272.5393°
Rev number
17,344

§ Raw data

STARLINK-303221 57670U 23124H   26263.61289717  .00002748  00000+0  92385-4 0  99982 57670  53.1613  18.9474 0000859  87.5708 272.5393 15.34410231173440

JSON: /api/v1/satellites/57670 · /tle

For live sub-satellite position, see the globe view (requires WebGL).

§ Visibility from observer

Set your observer location to see the next 7 days of passes ≥ 10°. The values pass through the URL so the page stays shareable.

No JS? Fill the form by hand. The geolocation button needs JavaScript.